Location: Mountain_View
(35.6670°N, 81.4000°W)
Time: 15:27:00
(UTC-04:00)

Amateur Radio Satellites - All Passes

Search period start: 31 July 2015 14:57
Search period end: 01 August 2015 14:57
Location: Mountain_View, 35.6670°N, 81.4000°W

Satellite Date Start Highest point End Downlink Frequencies (MHz)
Time Altitude Azimuth
TISAT 1 31 Jul 14:57:08 15:00:22 21° 290° (WNW) 15:03:29 437.305
Cosmos 2491 31 Jul 15:02:08 15:08:53 23° 293° (WNW) 15:15:14 435.465 / 435.565
Cosmos 2504 31 Jul 15:08:24 15:16:53 86° 264° (W) 15:25:32 435.465 / 435.565
BEESAT 31 Jul 15:08:43 15:13:29 69° 102° (ESE) 15:18:14 436.000
Gurwin Techsat 1B 31 Jul 15:09:54 15:15:13 84° 257° (WSW) 15:20:35 435.225
JAS-2 31 Jul 15:20:14 15:25:45 42° 69° (ENE) 15:32:04 435.910
SWISSCUBE 31 Jul 15:29:12 15:33:56 65° 285° (WNW) 15:38:38 437.505
ITAMSAT 1 31 Jul 15:37:04 15:42:07 50° 260° (W) 15:47:12 435.822/435.867
DANDE 31 Jul 15:43:24 15:46:30 22° 79° (E) 15:50:27 436.750
ITUPSAT 1 31 Jul 15:49:56 15:54:29 44° 287° (WNW) 15:58:59 437.325
STARS 31 Jul 15:50:06 15:52:50 16° 93° (E) 15:55:44 437.465
AO-7 31 Jul 16:07:45 16:15:55 62° 69° (ENE) 16:24:10 29.400- 29.500
CUSAT 1 31 Jul 16:08:18 16:12:37 77° 83° (E) 16:18:22 437.405
KKS-1 31 Jul 16:13:41 16:18:03 54° 100° (E) 16:22:26 437.445
HORYU 2 31 Jul 16:15:00 16:19:16 50° 74° (ENE) 16:23:37 437.375
BEESAT 31 Jul 16:49:09 16:50:49 11° 295° (WNW) 16:52:11 436.000
MOZHAYETS 4 31 Jul 16:59:38 17:02:54 19° 92° (E) 17:06:18
Cosmos 2504 31 Jul 17:03:41 17:08:09 15° 279° (W) 17:12:02 435.465 / 435.565
JAS-2 31 Jul 17:06:10 17:11:08 26° 269° (W) 17:16:26 435.910
GONETS M04 31 Jul 17:15:09 17:22:40 33° 72° (ENE) 17:30:24
STARS 31 Jul 17:25:20 17:29:26 37° 287° (WNW) 17:33:30 437.465
DANDE 31 Jul 17:26:15 17:29:33 23° 262° (W) 17:33:30 436.750
Cubesat XI-IV 31 Jul 17:44:33 17:47:44 17° 66° (ENE) 17:51:09 437.490
KKS-1 31 Jul 17:52:17 17:54:17 12° 293° (WNW) 17:56:02 437.445
HORYU 2 31 Jul 17:54:19 17:56:16 12° 270° (W) 17:57:59 437.375
AO-7 31 Jul 18:02:29 18:09:17 26° 266° (W) 18:15:46 29.400- 29.500
PCSat 31 Jul 18:13:55 18:17:26 18° 48° (NE) 18:21:07 145.827
VERMONT LUNAR 31 Jul 18:15:30 18:18:09 24° 148° (SSE) 18:20:50 437.305
MOZHAYETS 4 31 Jul 18:36:02 18:40:14 34° 288° (WNW) 18:44:21
CUTE-I 31 Jul 18:38:23 18:43:34 54° 73° (ENE) 18:48:49 437.470
SO-50 31 Jul 18:47:46 18:52:17 35° 53° (NE) 18:56:43 436.795
CUBESAT XI-V 31 Jul 18:51:21 18:55:05 25° 94° (E) 18:58:54 437.345
GONETS M04 31 Jul 19:11:31 19:19:48 48° 270° (W) 19:27:59
Cubesat XI-IV 31 Jul 19:22:08 19:27:25 57° 259° (W) 19:32:43 437.490
Cosmos 2499 31 Jul 19:23:00 19:31:31 53° 78° (ENE) 19:40:09 435.465 / 435.565
VERMONT LUNAR 31 Jul 19:51:34 19:54:44 62° 342° (NNW) 19:57:54 437.305
PHONESAT 2.4 31 Jul 19:55:42 19:58:27 22° 146° (SSE) 20:01:14 2401.200-2431.200
PCSat 31 Jul 19:56:00 20:01:23 63° 247° (WSW) 20:06:42 145.827
CANX-2 31 Jul 19:59:29 19:59:53 10° 67° (ENE) 20:00:32 2200.000
PRISM 31 Jul 20:13:09 20:17:02 42° 99° (E) 20:20:56 437.425
CUTE-I 31 Jul 20:20:39 20:24:03 16° 269° (W) 20:27:11 437.470
HO-68 31 Jul 20:21:18 20:27:37 36° 67° (ENE) 20:34:04 435.675
CUBESAT XI-V 31 Jul 20:28:37 20:32:30 27° 289° (WNW) 20:36:16 437.345
SO-50 31 Jul 20:28:38 20:32:41 25° 248° (WSW) 20:36:32 436.795
BRITE-PL 31 Jul 20:32:47 20:37:17 86° 258° (WSW) 20:41:33 437.365/2234.400
DOVE 4 31 Jul 20:38:34 20:42:17 32° 73° (ENE) 20:46:01 437.250
STRAND 1 31 Jul 20:43:06 20:48:12 76° 284° (WNW) 20:53:16 437.568
GOMX 1 31 Jul 20:46:44 20:51:01 76° 77° (ENE) 20:55:11 467.674
CINEMA 3 31 Jul 20:52:53 20:55:50 20° 70° (ENE) 20:58:57 145.822/145.860
COMPASS 1 31 Jul 21:07:07 21:10:56 35° 73° (ENE) 21:14:50 437.405
UWE-3 31 Jul 21:14:33 21:16:05 12° 67° (ENE) 21:17:52 435.000/436.395/437.385
Cosmos 2499 31 Jul 21:16:51 21:24:21 31° 274° (W) 21:31:37 435.465 / 435.565
SEEDS 31 Jul 21:20:49 21:25:00 69° 77° (ENE) 21:29:16 437.485
CUTE 1.7 + AOD 2 31 Jul 21:22:44 21:27:00 88° 256° (WSW) 21:31:19 437.475
ISS 31 Jul 21:24:25 21:27:35 54° 135° (SE) 21:30:47 145.825
Oscar 11 31 Jul 21:25:50 21:29:08 22° 70° (ENE) 21:32:32 145.826/435.025
CUBEBUG 2 31 Jul 21:27:10 21:30:20 22° 71° (ENE) 21:33:41 437.445
VERMONT LUNAR 31 Jul 21:28:51 21:31:45 32° 358° (N) 21:34:40 437.305
CANX-2 31 Jul 21:31:06 21:35:19 61° 260° (W) 21:39:35 2200.000
RS-15 31 Jul 21:32:36 21:42:43 49° 110° (ESE) 21:53:16 29.354- 29.394
PHONESAT 2.4 31 Jul 21:32:41 21:36:11 76° 339° (NNW) 21:39:43 2401.200-2431.200
DELFI C3 31 Jul 21:39:46 21:42:41 20° 70° (ENE) 21:45:42 145.870
AAUSAT CUBESAT 2 31 Jul 21:48:37 21:52:49 83° 258° (WSW) 21:57:03 437.432
PRISM 31 Jul 21:50:04 21:52:09 13° 292° (WNW) 21:54:02 437.425
HO-68 31 Jul 22:08:43 22:15:18 38° 263° (W) 22:21:50 435.675
DOVE 4 31 Jul 22:17:35 22:20:13 16° 268° (W) 22:22:40 437.250
ZACube-1 31 Jul 22:25:15 22:29:22 64° 76° (ENE) 22:33:35 437.345
CINEMA 3 31 Jul 22:29:22 22:32:55 27° 265° (W) 22:36:27 145.822/145.860
ANTELSAT 31 Jul 22:42:50 22:43:48 11° 89° (E) 22:45:07 437.575/2403.000
M-CUBED/EXP-1 PRIME 31 Jul 22:43:35 22:48:10 44° 103° (ESE) 22:52:37 437.505
COMPASS 1 31 Jul 22:44:07 22:46:46 16° 268° (W) 22:49:14 437.405
FUNcube-1 31 Jul 22:47:09 22:51:17 71° 259° (W) 22:55:32 145.935
UWE-3 31 Jul 22:48:11 22:52:13 48° 261° (W) 22:56:20 435.000/436.395/437.385
Oscar 11 31 Jul 23:01:27 23:05:10 27° 264° (W) 23:08:52 145.826/435.025
ISS 31 Jul 23:02:03 23:04:16 17° 332° (NNW) 23:06:26 145.825
UKube-1 31 Jul 23:02:10 23:06:14 42° 73° (ENE) 23:10:21 .
CUBEBUG 2 31 Jul 23:03:29 23:06:58 25° 266° (W) 23:10:24 437.445
AISAT 31 Jul 23:03:29 23:07:14 28° 71° (ENE) 23:11:02 437.250
VERMONT LUNAR 31 Jul 23:05:44 23:08:50 50° 15° (NNE) 23:11:56 437.305
50 SAT 31 Jul 23:10:23 23:13:55 35° 73° (ENE) 23:17:31 437.505
PHONESAT 2.4 31 Jul 23:11:10 23:14:26 36° 356° (N) 23:17:43 2401.200-2431.200
AUBIESAT-1 31 Jul 23:13:18 23:18:05 82° 107° (ESE) 23:22:40 437.475
DELFI C3 31 Jul 23:14:07 23:17:36 26° 264° (W) 23:21:02 145.870
HUMSAT D 31 Jul 23:15:50 23:19:58 81° 261° (W) 23:24:10 437.325/437.525
Cosmos 2491 31 Jul 23:17:16 23:24:24 29° 70° (ENE) 23:31:46 435.465 / 435.565
CUBEBUG 1 31 Jul 23:19:28 23:22:51 23° 70° (ENE) 23:26:19 437.445
DX 1 31 Jul 23:29:16 23:33:37 81° 256° (WSW) 23:37:59 434.975-435.025
UNISAT 6 31 Jul 23:31:26 23:35:51 40° 98° (E) 23:40:17 437.425
POLYITAN 1 31 Jul 23:33:37 23:35:47 14° 91° (E) 23:38:09 437.675
AIST 1 31 Jul 23:37:37 23:41:27 32° 78° (ENE) 23:45:19
YUBILEINY 31 Jul 23:38:26 23:42:59 16° 81° (E) 23:48:08 435.215
VELOX 1 31 Jul 23:41:55 23:46:19 77° 76° (ENE) 23:50:44 145.980
BEESAT 2 31 Jul 23:44:30 23:47:58 28° 113° (ESE) 23:51:31 435.950
RS-15 31 Jul 23:44:51 23:55:14 46° 312° (NW) 00:05:53 29.354- 29.394
POPSAT HIP 1 31 Jul 23:49:59 23:53:13 21° 94° (E) 23:56:33 437.405
ESTCUBE 1 31 Jul 23:51:45 23:56:15 68° 76° (ENE) 00:00:46 437.505/2401.250
BUGSAT 1 31 Jul 23:57:07 23:59:20 15° 92° (E) 00:01:45 437.445
QB50P2 31 Jul 23:57:14 00:00:51 27° 96° (E) 00:04:32 145.880/145.840
SPROUT 31 Jul 23:57:48 00:00:30 17° 69° (ENE) 00:03:21 437.525
TISAT 1 01 Aug 00:11:43 00:13:57 15° 68° (ENE) 00:16:21 437.305
TIGRISAT 01 Aug 00:14:46 00:19:27 70° 284° (WNW) 00:24:07 435.000
ANTELSAT 01 Aug 00:16:24 00:21:04 64° 285° (WNW) 00:25:43 437.575/2403.000
M-CUBED/EXP-1 PRIME 01 Aug 00:19:11 00:22:35 19° 297° (WNW) 00:25:46 437.505
DUCHIFAT 1 01 Aug 00:21:52 00:26:00 50° 99° (E) 00:30:09 145.980
BEESAT 3 01 Aug 00:24:19 00:28:22 72° 300° (WNW) 00:32:27 437.485
QB50P1 01 Aug 00:24:47 00:28:59 58° 100° (E) 00:33:12 145.935-145.965
NANOSAT C BR1 01 Aug 00:26:10 00:30:23 59° 101° (E) 00:34:34 145.865
UKube-1 01 Aug 00:40:17 00:42:37 14° 268° (W) 00:44:44 .
AISAT 01 Aug 00:40:22 00:43:49 22° 265° (W) 00:47:10 437.250
VERMONT LUNAR 01 Aug 00:42:38 00:45:30 33° 210° (SSW) 00:48:22 437.305
50 SAT 01 Aug 00:46:42 00:48:40 13° 269° (W) 00:50:28 437.505
PHONESAT 2.4 01 Aug 00:49:22 00:52:47 49° 14° (NNE) 00:56:11 2401.200-2431.200
AUBIESAT-1 01 Aug 00:50:54 00:52:08 11° 301° (WNW) 00:53:05 437.475
CUBEBUG 1 01 Aug 00:55:23 00:59:06 26° 264° (W) 01:02:45 437.445
POLYITAN 1 01 Aug 01:07:52 01:11:55 41° 286° (WNW) 01:15:56 437.675
UNISAT 6 01 Aug 01:09:04 01:12:20 19° 291° (WNW) 01:15:29 437.425
Cosmos 2491 01 Aug 01:13:19 01:21:45 55° 269° (W) 01:30:06 435.465 / 435.565
AIST 2 01 Aug 01:14:03 01:18:13 61° 117° (ESE) 01:22:26 435.215
AIST 1 01 Aug 01:16:13 01:18:51 16° 272° (W) 01:21:18
ITUPSAT 1 01 Aug 01:18:11 01:20:44 15° 66° (ENE) 01:23:29 437.325
BEESAT 2 01 Aug 01:22:41 01:26:01 23° 309° (NW) 01:29:18 435.950
POPSAT HIP 1 01 Aug 01:25:27 01:29:04 27° 288° (WNW) 01:32:37 437.405
YUBILEINY 01 Aug 01:30:07 01:38:50 85° 277° (W) 01:47:38 435.215
BUGSAT 1 01 Aug 01:31:14 01:34:57 35° 287° (WNW) 01:38:42 437.445
SPROUT 01 Aug 01:32:25 01:36:20 34° 263° (W) 01:40:14 437.525
QB50P2 01 Aug 01:33:19 01:36:36 21° 290° (WNW) 01:39:48 145.880/145.840
TISAT 1 01 Aug 01:45:29 01:49:25 39° 262° (W) 01:53:20 437.305
DUCHIFAT 1 01 Aug 01:59:37 02:01:25 12° 293° (WNW) 02:03:00 145.980
QB50P1 01 Aug 02:03:14 02:04:24 11° 293° (WNW) 02:05:19 145.935-145.965
NANOSAT C BR1 01 Aug 02:04:47 02:05:45 11° 293° (WNW) 02:06:29 145.865
RS-15 01 Aug 02:05:29 02:11:51 16° 343° (NNW) 02:18:01 29.354- 29.394
BEESAT 01 Aug 02:12:09 02:16:49 56° 74° (ENE) 02:21:32 436.000
O/OREOS (USA 219) 01 Aug 02:18:04 02:22:31 87° 110° (ESE) 02:27:02 437.305
PHONESAT 2.4 01 Aug 02:27:25 02:30:45 42° 209° (SSW) 02:34:02 2401.200-2431.200
Oscar 19 01 Aug 02:32:20 02:37:20 48° 99° (E) 02:42:21 437.125/150
SWISSCUBE 01 Aug 02:32:32 02:37:20 80° 259° (WSW) 02:42:10 437.505
STARS 01 Aug 02:46:22 02:47:10 11° 66° (ENE) 02:48:16 437.465
ITUPSAT 1 01 Aug 02:53:31 02:58:13 53° 260° (W) 03:02:56 437.325
AIST 2 01 Aug 02:55:02 02:57:14 13° 314° (NW) 02:59:16 435.215
KKS-1 01 Aug 03:09:08 03:13:06 34° 72° (ENE) 03:17:07 437.445
Gurwin Techsat 1B 01 Aug 03:29:14 03:34:22 49° 99° (E) 03:39:31 435.225
YUBILEINY 01 Aug 03:32:29 03:37:16 15° 298° (WNW) 03:41:26 435.215
Cosmos 2504 01 Aug 03:35:23 03:42:24 78° 95° (E) 03:49:56 435.465 / 435.565
ITAMSAT 1 01 Aug 03:52:42 03:57:54 74° 103° (ESE) 04:03:03 435.822/435.867
BEESAT 01 Aug 03:52:49 03:55:05 13° 270° (W) 03:57:03 436.000
ISS 01 Aug 03:54:46 03:57:18 20° 31° (NNE) 03:59:51 145.825
MOZHAYETS 4 01 Aug 03:59:50 04:02:08 14° 67° (ENE) 04:04:40
HORYU 2 01 Aug 04:11:05 04:12:49 12° 90° (E) 04:14:49 437.375
Oscar 19 01 Aug 04:12:47 04:16:22 19° 293° (WNW) 04:19:45 437.125/150
AO-7 01 Aug 04:13:55 04:20:02 23° 93° (E) 04:26:28 29.400- 29.500
JAS-2 01 Aug 04:16:21 04:24:03 56° 99° (E) 04:31:34 435.910
STARS 01 Aug 04:18:50 04:23:09 62° 259° (W) 04:27:30 437.465
RS-15 01 Aug 04:24:27 04:30:59 17° 19° (NNE) 04:38:04 29.354- 29.394
JUGNU 01 Aug 04:34:37 04:37:49 15° 173° (S) 04:41:03 437.505
KKS-1 01 Aug 04:46:46 04:49:51 18° 267° (W) 04:52:48 437.445
DANDE 01 Aug 04:53:39 04:56:45 29° 98° (E) 04:59:23 436.750
Gurwin Techsat 1B 01 Aug 05:10:20 05:14:00 19° 294° (WNW) 05:17:30 435.225
CUSAT 1 01 Aug 05:15:01 05:18:02 55° 279° (W) 05:20:40 437.405
ISS 01 Aug 05:30:47 05:33:50 37° 227° (SW) 05:36:52 145.825
Cosmos 2504 01 Aug 05:31:22 05:35:45 16° 296° (WNW) 05:39:49 435.465 / 435.565
MOZHAYETS 4 01 Aug 05:34:27 05:38:58 51° 261° (W) 05:43:30
ITAMSAT 1 01 Aug 05:34:43 05:36:50 12° 296° (WNW) 05:38:40 435.822/435.867
HORYU 2 01 Aug 05:45:25 05:49:49 51° 286° (WNW) 05:54:11 437.375
CUBESAT XI-V 01 Aug 05:52:30 05:55:40 19° 69° (ENE) 05:58:58 437.345
JAS-2 01 Aug 06:02:04 06:08:40 30° 294° (WNW) 06:15:01 435.910
AO-7 01 Aug 06:05:14 06:13:30 67° 290° (WNW) 06:21:40 29.400- 29.500
GONETS M04 01 Aug 06:12:24 06:20:16 41° 89° (E) 06:28:16
STRAND 1 01 Aug 06:20:22 06:22:21 13° 64° (ENE) 06:24:38 437.568
JUGNU 01 Aug 06:22:30 06:26:06 17° 183° (S) 06:29:42 437.505
SRMSAT 01 Aug 06:26:09 06:29:20 15° 173° (S) 06:32:34 437.500
RS-15 01 Aug 06:36:24 06:47:35 48° 49° (NE) 06:59:16 29.354- 29.394
CUTE-I 01 Aug 06:58:59 07:03:23 27° 95° (E) 07:07:53 437.470
PRISM 01 Aug 07:00:46 07:03:58 22° 70° (ENE) 07:07:14 437.425
CUBESAT XI-V 01 Aug 07:28:28 07:32:51 38° 263° (W) 07:37:12 437.345
Cubesat XI-IV 01 Aug 07:42:20 07:47:40 74° 101° (ESE) 07:52:58 437.490
STRAND 1 01 Aug 07:55:54 08:01:02 72° 258° (WSW) 08:06:11 437.568
Cosmos 2499 01 Aug 07:56:33 08:03:15 42° 89° (E) 08:10:33 435.465 / 435.565
AO-7 01 Aug 08:01:24 08:04:57 13° 308° (NW) 08:07:59 29.400- 29.500
GONETS M04 01 Aug 08:09:10 08:17:10 38° 286° (WNW) 08:25:01
JUGNU 01 Aug 08:12:21 08:14:22 12° 192° (SSW) 08:16:18 437.505
SRMSAT 01 Aug 08:14:11 08:17:47 16° 183° (S) 08:21:21 437.500
PRISM 01 Aug 08:35:44 08:39:17 26° 264° (W) 08:42:46 437.425
CUTE-I 01 Aug 08:38:47 08:43:30 32° 290° (WNW) 08:48:07 437.470
BRITE-PL 01 Aug 08:39:43 08:43:47 35° 98° (E) 08:48:11 437.365/2234.400
DOVE 4 01 Aug 08:41:07 08:43:06 13° 91° (E) 08:45:25 437.250
BEESAT 3 01 Aug 08:45:52 08:49:17 26° 53° (NE) 08:52:42 437.485
RS-15 01 Aug 08:48:57 09:00:18 51° 249° (WSW) 09:11:46 29.354- 29.394
GOMX 1 01 Aug 08:50:51 08:54:45 28° 96° (E) 08:58:58 467.674
PCSat 01 Aug 08:52:27 08:56:44 25° 108° (ESE) 09:01:11 145.827
SO-50 01 Aug 09:00:08 09:03:33 21° 111° (ESE) 09:07:13 436.795
SEEDS 01 Aug 09:09:34 09:11:48 14° 91° (E) 09:14:14 437.485
CUTE 1.7 + AOD 2 01 Aug 09:11:45 09:14:50 20° 93° (E) 09:18:02 437.475
CANX-2 01 Aug 09:19:41 09:23:21 27° 95° (E) 09:27:03 2200.000
Cubesat XI-IV 01 Aug 09:24:48 09:27:12 13° 296° (WNW) 09:29:18 437.490
M-CUBED/EXP-1 PRIME 01 Aug 09:28:57 09:32:31 32° 66° (ENE) 09:36:24 437.505
AAUSAT CUBESAT 2 01 Aug 09:35:22 09:38:18 19° 93° (E) 09:41:21 437.432
HO-68 01 Aug 09:38:52 09:45:47 49° 100° (E) 09:52:43 435.675
AIST 2 01 Aug 09:39:20 09:42:11 18° 49° (NE) 09:45:06 435.215
BEESAT 2 01 Aug 09:43:23 09:47:27 89° 55° (NE) 09:51:27 435.950
Cosmos 2499 01 Aug 09:50:05 09:56:36 32° 289° (WNW) 10:03:23 435.465 / 435.565
AUBIESAT-1 01 Aug 09:57:51 10:01:46 62° 71° (ENE) 10:06:04 437.475
SRMSAT 01 Aug 10:04:15 10:06:12 12° 192° (SSW) 10:08:04 437.500
DOVE 4 01 Aug 10:16:36 10:21:09 56° 285° (WNW) 10:25:59 437.250
ZACube-1 01 Aug 10:17:38 10:20:29 17° 92° (E) 10:23:31 437.345
BRITE-PL 01 Aug 10:19:01 10:22:11 19° 289° (WNW) 10:25:20 437.365/2234.400
BEESAT 3 01 Aug 10:23:55 10:27:07 22° 248° (WSW) 10:30:10 437.485
CINEMA 3 01 Aug 10:25:28 10:30:13 81° 100° (E) 10:35:08 145.822/145.860
UNISAT 6 01 Aug 10:28:13 10:31:38 24° 70° (ENE) 10:35:14 437.425
COMPASS 1 01 Aug 10:28:26 10:32:40 78° 283° (WNW) 10:36:51 437.405
GOMX 1 01 Aug 10:29:02 10:32:49 25° 288° (WNW) 10:36:42 467.674
PCSat 01 Aug 10:34:57 10:39:59 38° 303° (WNW) 10:45:01 145.827
FUNcube-1 01 Aug 10:38:28 10:42:22 28° 96° (E) 10:46:20 145.935
SO-50 01 Aug 10:39:23 10:43:50 39° 306° (NW) 10:48:26 436.795
UWE-3 01 Aug 10:40:29 10:44:50 40° 98° (E) 10:49:15 435.000/436.395/437.385
POPSAT HIP 1 01 Aug 10:41:53 10:43:14 12° 67° (ENE) 10:44:49 437.405
SEEDS 01 Aug 10:43:49 10:47:49 39° 286° (WNW) 10:51:44 437.485
CUTE 1.7 + AOD 2 01 Aug 10:47:02 10:50:47 29° 288° (WNW) 10:54:27 437.475
QB50P2 01 Aug 10:48:34 10:50:52 15° 68° (ENE) 10:53:20 145.880/145.840
Oscar 11 01 Aug 10:50:53 10:55:14 66° 101° (ESE) 10:59:32 145.826/435.025
DELFI C3 01 Aug 10:55:20 10:59:15 47° 99° (E) 11:03:09 145.870
CANX-2 01 Aug 10:55:49 10:59:08 21° 290° (WNW) 11:02:20 2200.000
CUBEBUG 2 01 Aug 10:55:58 11:00:39 80° 103° (ESE) 11:05:23 437.445
HUMSAT D 01 Aug 11:03:22 11:06:34 21° 93° (E) 11:09:54 437.325/437.525
M-CUBED/EXP-1 PRIME 01 Aug 11:04:43 11:07:28 17° 264° (W) 11:10:13 437.505
AAUSAT CUBESAT 2 01 Aug 11:10:16 11:13:57 29° 288° (WNW) 11:17:32 437.432
TIGRISAT 01 Aug 11:10:31 11:14:48 72° 77° (ENE) 11:19:13 435.000
DUCHIFAT 1 01 Aug 11:11:47 11:15:11 25° 71° (ENE) 11:18:40 145.980
ANTELSAT 01 Aug 11:12:20 11:16:39 79° 77° (ENE) 11:21:06 437.575/2403.000
QB50P1 01 Aug 11:14:56 11:18:32 29° 72° (ENE) 11:22:12 145.935-145.965
NANOSAT C BR1 01 Aug 11:16:07 11:19:42 29° 72° (ENE) 11:23:23 145.865
AIST 2 01 Aug 11:17:02 11:20:56 38° 246° (WSW) 11:24:44 435.215
DX 1 01 Aug 11:21:15 11:24:30 21° 95° (E) 11:27:52 434.975-435.025
HO-68 01 Aug 11:27:12 11:33:14 29° 295° (WNW) 11:39:05 435.675
VELOX 1 01 Aug 11:36:18 11:39:15 18° 93° (E) 11:42:22 145.980
YUBILEINY 01 Aug 11:44:14 11:52:25 42° 75° (ENE) 12:00:43 435.215
ESTCUBE 1 01 Aug 11:48:31 11:51:27 18° 92° (E) 11:54:31 437.505/2401.250
ZACube-1 01 Aug 11:52:44 11:57:01 40° 286° (WNW) 12:01:17 437.345
POLYITAN 1 01 Aug 11:57:28 12:01:39 82° 258° (WSW) 12:05:53 437.675
AIST 1 01 Aug 12:04:22 12:07:46 23° 90° (E) 12:11:15
UNISAT 6 01 Aug 12:04:43 12:08:21 25° 265° (W) 12:11:58 437.425
POPSAT HIP 1 01 Aug 12:14:37 12:18:43 51° 261° (W) 12:22:48 437.405
Cosmos 2491 01 Aug 12:14:41 12:22:20 37° 88° (E) 12:30:09 435.465 / 435.565
FUNcube-1 01 Aug 12:14:51 12:18:33 24° 289° (WNW) 12:22:10 145.935
BUGSAT 1 01 Aug 12:17:50 12:21:54 79° 258° (WSW) 12:25:57 437.445
UWE-3 01 Aug 12:17:57 12:21:05 18° 291° (WNW) 12:24:05 435.000/436.395/437.385
QB50P2 01 Aug 12:22:30 12:26:27 39° 262° (W) 12:30:24 145.880/145.840
50 SAT 01 Aug 12:22:31 12:26:31 85° 101° (E) 12:30:29 437.505
UKube-1 01 Aug 12:28:10 12:32:27 66° 285° (WNW) 12:36:43 .
O/OREOS (USA 219) 01 Aug 12:30:53 12:35:29 81° 250° (WSW) 12:40:04 437.305
DELFI C3 01 Aug 12:32:25 12:33:57 12° 292° (WNW) 12:35:15 145.870
AISAT 01 Aug 12:32:34 12:37:00 88° 105° (ESE) 12:41:25 437.250
HUMSAT D 01 Aug 12:38:34 12:42:20 29° 288° (WNW) 12:46:01 437.325/437.525
CUBEBUG 1 01 Aug 12:46:13 12:50:32 69° 101° (ESE) 12:54:50 437.445
DUCHIFAT 1 01 Aug 12:47:41 12:50:58 22° 266° (W) 12:54:10 145.980
QB50P1 01 Aug 12:51:22 12:54:27 19° 266° (W) 12:57:24 145.935-145.965
NANOSAT C BR1 01 Aug 12:52:33 12:55:36 19° 267° (W) 12:58:30 145.865
DX 1 01 Aug 12:57:02 13:00:46 28° 289° (WNW) 13:04:26 434.975-435.025
VELOX 1 01 Aug 13:11:56 13:15:55 34° 288° (WNW) 13:19:52 145.980
SPROUT 01 Aug 13:21:29 13:25:39 48° 99° (E) 13:29:50 437.525
ESTCUBE 1 01 Aug 13:24:20 13:28:28 36° 288° (WNW) 13:32:31 437.505/2401.250
Cosmos 2504 01 Aug 13:25:21 13:31:27 22° 68° (ENE) 13:38:01 435.465 / 435.565
TISAT 1 01 Aug 13:32:34 13:36:29 37° 98° (E) 13:40:25 437.305
YUBILEINY 01 Aug 13:41:13 13:49:11 38° 272° (W) 13:56:57 435.215
AIST 1 01 Aug 13:41:47 13:45:21 23° 285° (WNW) 13:48:48
Oscar 19 01 Aug 13:46:18 13:51:13 51° 73° (ENE) 13:56:12 437.125/150
Cosmos 2491 01 Aug 14:10:48 14:19:05 43° 285° (WNW) 14:27:15 435.465 / 435.565
BEESAT 01 Aug 14:16:25 14:19:34 18° 93° (E) 14:22:53 436.000
JAS-2 01 Aug 14:27:58 14:31:27 16° 60° (ENE) 14:35:29 435.910
SWISSCUBE 01 Aug 14:36:11 14:40:25 32° 97° (E) 14:44:42 437.505
